COSMOS 1823 DEB

Satellite information

Favourite Embed

Satellite Type and Status

DEBRISIN ORBIT

Key statistics

Satellite COSMOS 1823 DEB at a glance.

Uptime

13959

Days in orbit

Revolutions

≈ 14.9

Per day

Orbit

LEO

Low Earth Orbit

Inclination

74.0

Latest

Satellite identification and parameters

Extended collection of information and parameters for COSMOS 1823 DEB.

Object identification

Identified? True

Debris? True

Object name: COSMOS 1823 DEB

International designator: 1987-020EQ

Object number (NORAD): 39816

Object ID (CCSDS): 39816

Country: COMMONWEALTH OF INDEPENDENT STATES (CIS)

Current information (Y/N): Y

RCS size: SMALL

Orbital parameters

Period: 96.711 minutes

Inclination: 74.0368 deg

SMA: 6979.275 km

Apoapsis: 621.964 km

Periapsis: 580.316 km

RAAN: 91.8149 deg

Eccentricy: 0.0029837

Argument of periapsis: 354.3115 deg

Mean anomaly: 5.7722 deg

Mean motion: 14.88974487 rev/day

Mean motion (dot): 0.00002323 rev/day2

B* drag term: 0.00024901 1/REarth

Two-line elements (TLE)

Creation date: May 9, 2025, 2:46 a.m.

Reference frame: TEME

Reference center: EARTH

Epoch: May 8, 2025, 3:49 a.m. UTC

TLE line 0: 0 COSMOS 1823 DEB

TLE line 1: 1 39816U 87020EQ 25128.15932607 .00002323 00000-0 24901-3 0 9994

TLE line 2: 2 39816 74.0368 91.8149 0029837 354.3115 5.7722 14.88974487571185

Live tracking on map

Real-time ground track for satellite COSMOS 1823 DEB.

In-orbit conjunctions

A list of the most updated potential collisions computed for object COSMOS 1823 DEB.

Target Orbit TCA Probability of collision Miss distance Type
CZ-6A DEB LEO 2024-10-17 15:02:46 0.0007510068 117.0 (m) DEBRIS
ORBCOMM FM 40 LEO 2024-09-11 23:02:07 0.00015773 168.0 (m) PAYLOAD

Associated space launch

A satellite for the GEO-IK geodetic system

COSMOS 1823 DEB was lifted into orbit during the mission ‘Tsiklon-3 | Geo-IK 9’, on board a Tsiklon-3 space rocket.

The launch took place on Feb. 20, 1987, 4:43 a.m. from 32/2.

For more information about the launch, click the button.

Launch to space Tsiklon-3 | Geo-IK 9
Tsiklon-3 | Geo-IK 9

Agency: N/A

Status: Launch Successful

Launch date: Feb. 20, 1987, 4:43 a.m. UTC

Rocket: Tsiklon-3

Launch pad: 32/2

Location: Plesetsk Cosmodrome, Russian Federation

...

Latest news about this satellite

There are no fresh news available about this satellite. Check back as we update our databases every day.


Newsletter sign-up

Weekly statistics, charts and insights to help you stay on top of the space industry.